Terminal Aerodrome Forecast
Issued by NWS Cleveland, OH

Home | Current Version | Previous Version | Graphics & Text | Print | Product List | Glossary On
Versions: 1 2 3 4 5 6 7 8 9 10 11
934
FTUS41 KCLE 212320
TAFERI
TAF
KERI 212320Z 2200/2224 27012G18KT P6SM OVC035
     FM220700 32007KT P6SM OVC025
     FM221800 33008KT P6SM BKN250=

USA.gov is the U.S. government's official web portal to all federal, state and local government web resources and services.